Location: Gombori
(14.9797°N, 2.9419°W)
Time: 22:16:23
(UTC+00:00)

Cosmos 1812 Rocket - Pass Details

Date: 29 July 2021
Orbit: 604 x 633 km, 82.5° (Epoch: 20 September)

Event Time Altitude Azimuth Distance (km) Brightness Sun altitude
Rises 19:32:03 0° 350° (N) 2,916 7.5 -12.0°
Reaches altitude 10° 19:34:18 10° 347° (NNW) 2,006 6.7 -12.5°
Maximum altitude 19:38:41 61° 267° (W) 711 4.1 -13.5°
Drops below altitude 10° 19:43:03 10° 187° (S) 1,991 6.0 -14.4°
Sets 19:45:17 0° 183° (S) 2,892 6.8 -14.9°
